Stations météo

Publicité
Perrigny, France (7266): Température de l'air & dewpoint: 14.04.2019 22:00:00 - 20.04.2019 22:00:00 (CEST)Perrigny, France (7266): Température de l'air 5cm: 14.04.2019 22:00:00 - 20.04.2019 22:00:00 (CEST)Perrigny, France (7266): Température de l'air -20cm & Température de l'air -100cm: 14.04.2019 22:00:00 - 20.04.2019 22:00:00 (CEST)Perrigny, France (7266): Vitesse du vent & gusts: 14.04.2019 22:00:00 - 20.04.2019 22:00:00 (CEST)Perrigny, France (7266): Direction du vent: 14.04.2019 22:00:00 - 20.04.2019 22:00:00 (CEST)Perrigny, France (7266): reduced air pressure: 14.04.2019 22:00:00 - 20.04.2019 22:00:00 (CEST)Perrigny, France (7266): visibility: 14.04.2019 22:00:00 - 20.04.2019 22:00:00 (CEST)Perrigny, France (7266): Ensoleillement: 14.04.2019 22:00:00 - 20.04.2019 22:00:00 (CEST)Perrigny, France (7266): Quantités de précipitations: 14.04.2019 22:00:00 - 20.04.2019 22:00:00 (CEST)
Date & Time tt [°C] td [°C] tt 5cm [°C] tt -20cm [°C] tt -100cm [°C] ff [km/h] ff [knt] fx [km/h] fx [knt] dd ppp [hPa] vv [km] sd [min] rr [mm]
20.04.2019 22:00:00 17,7 5,9 14,4 16,8 11,1 5 3 13 7 N 1021,7 20 0 0,0
20.04.2019 21:00:00 19,9 4,8 17,3 17,0 11,1 7 4 18 10 N 1021,4 20 17 0,0
20.04.2019 20:00:00 22,1 2,7 22,3 17,2 11,1 9 5 24 13 NNE 1021,1 20 60 0,0
20.04.2019 19:00:00 23,2 2,6 25,4 17,2 11,1 10 6 27 15 NNE 1021,4 20 60 0,0
20.04.2019 18:00:00 23,6 4,0 25,9 17,1 11,1 15 8 36 19 NNE 1021,5 20 60 0,0
20.04.2019 17:00:00 24,0 5,8 24,1 16,8 11,0 16 8 39 21 N 1021,9 20 44 0,0
20.04.2019 16:00:00 24,1 8,9 25,1 16,5 11,0 15 8 32 18 N 1022,3 20 54 0,0
20.04.2019 15:00:00 23,7 10,0 25,0 16,0 11,0 14 8 29 15 NNE 1023,2 20 60 0,0
20.04.2019 14:00:00 22,9 9,3 24,3 15,5 11,0 11 6 24 13 N 1023,7 20 60 0,0
20.04.2019 13:00:00 21,1 10,6 26,4 14,9 11,0 8 4 16 9 N 1024,5 20 60 0,0
20.04.2019 12:00:00 19,8 10,5 24,3 14,4 11,0 7 4 18 10 N 1025,1 20 60 0,0
20.04.2019 11:00:00 18,1 10,0 22,4 13,9 10,9 6 4 16 9 N 1025,5 20 60 0,0
20.04.2019 10:00:00 16,7 11,6 19,7 13,8 10,9 5 3 11 6 N 1025,8 20 60 0,0
20.04.2019 09:00:00 13,8 11,3 14,1 13,8 10,9 0 0 6 3 N 1026,1 18 60 0,0
20.04.2019 08:00:00 11,5 10,1 8,9 14,0 10,9 7 4 8 5 SW 1026,0 15 42 0,0
20.04.2019 07:00:00 10,9 8,3 8,7 14,2 10,9 3 2 14 7 W 1025,7 12 0 0,0
20.04.2019 06:00:00 11,3 9,2 9,4 14,4 10,9 2 1 15 8 NW 1025,4 12 0 0,0
20.04.2019 05:00:00 14,5 10,3 12,0 14,5 10,9 5 3 23 12 E 1025,4 20 0 1,9
20.04.2019 04:00:00 19,1 7,2 11,5 14,7 10,9 13 7 31 17 E 1025,0 9 0 3,8
20.04.2019 03:00:00 12,2 8,7 10,8 14,9 10,9 3 2 12 7 ENE 1025,2 20 0 0,0
20.04.2019 02:00:00 11,7 8,4 10,9 15,2 10,9 3 2 10 5 SSW 1025,3 20 0 0,0
20.04.2019 01:00:00 11,9 8,4 9,2 15,5 10,9 0 0 5 3 N 1025,4 20 0 0,0
20.04.2019 00:00:00 12,5 8,4 9,7 15,7 10,9 3 2 6 4 SSW 1025,2 20 0 0,0
19.04.2019 23:00:00 14,6 8,8 11,0 16,0 10,9 4 2 7 4 WSW 1025,0 20 0 0,0
19.04.2019 22:00:00 16,9 7,5 12,3 16,3 10,8 0 0 6 3 N 1024,7 20 0 0,0
19.04.2019 21:00:00 18,4 6,9 13,9 16,4 10,8 0 0 2 1 N 1024,2 20 2 0,0
19.04.2019 20:00:00 23,1 6,8 22,2 16,4 10,8 0 0 6 4 N 1023,5 20 60 0,0
19.04.2019 19:00:00 24,5 8,0 26,6 16,2 10,8 4 2 13 7 SW 1023,2 20 60 0,0
19.04.2019 18:00:00 25,0 6,2 28,4 15,8 10,8 5 3 15 8 SW 1023,1 20 60 0,0
19.04.2019 17:00:00 24,9 8,0 29,2 15,3 10,8 6 4 16 9 SW 1023,1 20 60 0,0
19.04.2019 16:00:00 24,7 6,9 29,3 14,7 10,8 11 6 24 13 S 1023,3 20 60 0,0
19.04.2019 15:00:00 24,1 5,9 25,8 14,2 10,8 13 7 29 16 SSE 1023,5 20 60 0,0
19.04.2019 14:00:00 23,8 7,8 25,0 13,7 10,8 14 7 27 15 S 1023,8 19 60 0,0
19.04.2019 13:00:00 22,8 6,5 26,3 13,1 10,8 16 9 26 14 SSE 1023,9 20 60 0,0
19.04.2019 12:00:00 21,1 6,2 24,3 12,6 10,7 15 8 29 16 S 1024,0 20 60 0,0
19.04.2019 11:00:00 19,6 6,3 22,2 12,2 10,7 15 8 24 13 S 1024,0 20 60 0,0
19.04.2019 10:00:00 17,0 6,5 17,5 12,0 10,7 10 5 18 10 S 1024,1 20 60 0,0
19.04.2019 09:00:00 12,3 9,1 12,9 12,0 10,7 2 1 5 3 ESE 1024,0 20 60 0,0
19.04.2019 08:00:00 9,1 8,2 4,3 12,2 10,7 3 1 7 4 E 1023,7 14 41 0,0
19.04.2019 07:00:00 6,8 5,9 3,7 12,5 10,7 5 3 7 4 E 1023,1 9 0 0,0
19.04.2019 06:00:00 6,8 5,7 3,8 12,8 10,7 2 1 6 4 E 1022,6 13 0 0,0
19.04.2019 05:00:00 7,6 6,2 4,9 13,0 10,7 2 1 6 4 ENE 1022,3 12 0 0,0
19.04.2019 04:00:00 8,1 6,6 5,3 13,3 10,7 4 2 5 3 E 1021,8 14 0 0,0
19.04.2019 03:00:00 9,2 7,5 5,9 13,6 10,7 2 1 8 4 SW 1021,5 19 0 0,0
19.04.2019 02:00:00 9,4 6,8 7,0 13,9 10,7 5 3 8 4 SW 1021,2 20 0 0,0
19.04.2019 01:00:00 10,9 7,6 8,0 14,2 10,7 2 1 5 3 W 1021,1 20 0 0,0
19.04.2019 00:00:00 12,2 7,9 9,2 14,4 10,7 0 0 6 3 N 1020,7 20 0 0,0
18.04.2019 23:00:00 14,6 7,4 9,7 14,7 10,7 6 3 7 4 SE 1020,1 20 0 0,0
18.04.2019 22:00:00 15,9 7,6 11,1 14,9 10,6 5 3 9 5 ESE 1019,8 20 0 0,0
18.04.2019 21:00:00 17,9 8,2 12,7 15,1 10,6 5 3 9 5 SE 1019,0 20 0 0,0
18.04.2019 20:00:00 19,9 8,6 18,7 15,1 10,6 6 4 18 10 E 1018,4 20 31 0,0
18.04.2019 19:00:00 21,6 7,8 21,7 15,0 10,6 11 6 25 13 E 1018,0 20 51 0,0
18.04.2019 18:00:00 22,4 7,8 24,7 14,8 10,6 15 8 27 15 E 1017,6 20 60 0,0
18.04.2019 17:00:00 22,1 7,1 24,1 14,5 10,6 14 8 26 14 E 1017,5 20 46 0,0
18.04.2019 16:00:00 22,1 7,1 25,0 14,1 10,6 15 8 27 15 ESE 1017,6 20 60 0,0
18.04.2019 15:00:00 22,3 8,0 23,5 13,6 10,6 15 8 29 16 E 1017,5 20 58 0,0
18.04.2019 14:00:00 21,2 8,5 23,1 13,2 10,6 21 12 35 19 E 1017,7 20 56 0,0
18.04.2019 13:00:00 20,8 7,8 23,2 12,7 10,6 19 11 37 20 E 1017,9 20 60 0,0
18.04.2019 12:00:00 19,5 9,4 22,5 12,2 10,6 15 8 24 13 E 1018,4 20 60 0,0
18.04.2019 11:00:00 18,0 7,7 19,0 11,7 10,6 14 7 22 12 E 1018,6 20 60 0,0
18.04.2019 10:00:00 15,2 9,8 17,5 11,5 10,6 4 2 8 4 ENE 1019,0 20 57 0,0
18.04.2019 09:00:00 11,6 9,8 9,1 11,6 10,6 0 0 7 4 N 1018,9 19 47 0,0
18.04.2019 08:00:00 7,6 6,2 6,9 11,7 10,6 0 0 5 3 N 1019,1 19 2 0,0
18.04.2019 07:00:00 7,8 6,3 6,5 11,9 10,5 4 2 7 4 SW 1018,8 20 0 0,0
18.04.2019 06:00:00 8,3 6,3 6,3 12,1 10,6 0 0 5 3 N 1018,3 20 0 0,0
18.04.2019 05:00:00 9,1 6,2 7,1 12,3 10,6 5 3 8 4 NW 1018,5 20 0 0,0
18.04.2019 04:00:00 9,2 6,3 7,6 12,5 10,6 4 2 11 6 N 1018,3 20 0 0,0
18.04.2019 03:00:00 10,6 6,9 8,5 12,7 10,6 6 3 10 5 NE 1018,3 20 0 0,0
18.04.2019 02:00:00 9,9 6,2 8,4 12,9 10,5 3 1 10 5 NNW 1018,7 20 0 0,0
18.04.2019 01:00:00 12,8 6,8 8,8 13,2 10,6 7 4 12 6 E 1018,3 20 0 0,0
18.04.2019 00:00:00 12,4 6,9 8,8 13,4 10,5 4 2 9 5 ESE 1018,1 20 0 0,0
17.04.2019 23:00:00 13,2 6,8 10,2 13,6 10,5 4 2 11 6 E 1018,1 20 0 0,0
17.04.2019 22:00:00 14,3 7,1 11,0 13,9 10,5 5 3 8 5 ENE 1018,1 20 0 0,0
17.04.2019 21:00:00 15,2 6,7 11,5 14,1 10,5 5 3 15 8 NNE 1017,7 20 0 0,0
17.04.2019 20:00:00 17,4 7,4 16,5 14,2 10,6 11 6 19 11 ENE 1017,2 20 52 0,0
17.04.2019 19:00:00 18,5 7,3 19,5 14,1 10,6 14 7 24 13 E 1017,0 20 45 0,0
17.04.2019 18:00:00 18,8 7,2 20,0 13,8 10,5 13 7 25 14 ENE 1017,0 20 53 0,0
17.04.2019 17:00:00 18,6 7,1 20,7 13,4 10,5 13 7 31 17 ENE 1017,5 20 54 0,0
17.04.2019 16:00:00 17,8 8,1 20,0 12,9 10,5 10 5 21 12 E 1018,1 20 55 0,0
17.04.2019 15:00:00 17,1 8,2 18,4 12,4 10,5 10 5 20 11 E 1018,9 20 26 0,0
17.04.2019 14:00:00 16,7 9,9 17,3 11,9 10,5 7 4 18 10 E 1019,4 18 36 0,0
17.04.2019 13:00:00 15,1 10,5 18,2 11,1 10,5 7 4 14 8 ENE 1020,0 20 47 0,0
17.04.2019 12:00:00 13,0 12,5 16,3 10,5 10,5 3 1 9 5 NE 1020,6 18 60 0,0
17.04.2019 11:00:00 10,7 10,4 10,8 10,1 10,5 4 2 10 5 ESE 1020,8 8 15 0,0
17.04.2019 10:00:00 8,7 8,2 9,1 10,0 10,5 3 2 6 3 S 1021,3 0,2 0 0,0
17.04.2019 09:00:00 7,9 7,5 7,8 10,0 10,5 2 1 9 5 ESE 1021,2 0,1 0 0,0
17.04.2019 08:00:00 7,2 6,8 5,6 10,0 10,5 6 3 12 6 ESE 1021,1 0,1 0 0,0
17.04.2019 07:00:00 6,1 5,5 5,3 10,2 10,5 4 2 9 5 SE 1020,9 0,1 0 0,0
17.04.2019 06:00:00 5,8 5,2 4,9 10,3 10,5 2 1 7 4 ESE 1020,4 0,1 0 0,2
17.04.2019 05:00:00 6,0 5,4 3,9 10,5 10,5 5 3 8 4 ESE 1020,3 0,1 0 0,0
17.04.2019 04:00:00 7,1 6,4 5,3 10,7 10,5 8 4 11 6 SSE 1020,2 0,2 0 0,0
17.04.2019 03:00:00 7,8 6,9 4,9 10,9 10,5 4 2 8 5 SSE 1020,4 3,0 0 0,0
17.04.2019 02:00:00 8,8 7,7 6,9 11,0 10,5 8 4 9 5 SSE 1020,4 5 0 0,0
17.04.2019 01:00:00 10,0 8,8 9,6 11,1 10,5 3 2 7 4 SSE 1020,4 8 0 0,0
17.04.2019 00:00:00 10,4 9,2 9,2 11,1 10,5 4 2 6 4 SW 1020,2 10 0 0,0
16.04.2019 23:00:00 10,5 8,9 9,7 11,2 10,5 3 2 9 5 S 1020,0 2,8 0 0,0
16.04.2019 22:00:00 11,0 9,3 10,8 11,3 10,5 6 3 11 6 WSW 1019,9 12 0 0,0
16.04.2019 21:00:00 11,3 9,0 11,0 11,3 10,5 4 2 15 8 WSW 1019,2 16 0 0,0
16.04.2019 20:00:00 11,7 9,1 11,4 11,3 10,5 10 5 19 10 W 1018,6 19 0 0,0
16.04.2019 19:00:00 12,2 9,2 12,4 11,1 10,5 13 7 30 16 WNW 1018,1 20 4 0,0
16.04.2019 18:00:00 12,6 9,4 13,0 10,9 10,5 12 7 28 15 W 1017,5 20 8 0,0
16.04.2019 17:00:00 12,7 10,2 13,0 10,8 10,5 13 7 21 12 W 1017,0 20 0 0,0
16.04.2019 16:00:00 12,3 10,4 12,3 10,6 10,5 13 7 24 13 W 1016,7 20 0 0,0
16.04.2019 15:00:00 11,9 10,3 12,0 10,5 10,5 11 6 22 12 SW 1016,6 16 0 0,0
16.04.2019 14:00:00 11,1 9,5 11,0 10,4 10,5 17 9 27 15 SSW 1016,4 19 0 0,0
16.04.2019 13:00:00 11,0 9,4 10,7 10,2 10,5 15 8 24 13 SSW 1016,4 20 0 0,2
16.04.2019 12:00:00 10,4 9,2 9,8 10,1 10,5 16 9 26 14 S 1016,3 20 0 0,6
16.04.2019 11:00:00 9,7 8,5 9,4 10,1 10,5 14 7 29 16 S 1016,2 13 0 0,5
16.04.2019 10:00:00 9,5 8,3 9,2 10,0 10,5 19 10 29 16 S 1015,8 10 0 1,0
16.04.2019 09:00:00 9,3 8,2 8,5 10,0 10,5 18 10 26 14 S 1015,6 15 0 0,6
16.04.2019 08:00:00 8,8 7,4 8,4 10,1 10,5 16 9 28 15 SSE 1015,4 10 0 1,6
16.04.2019 07:00:00 8,9 7,3 8,3 10,1 10,5 14 8 24 13 S 1015,1 8 0 1,4
16.04.2019 06:00:00 9,1 6,7 8,2 10,1 10,5 11 6 29 16 S 1014,8 9 0 1,2
16.04.2019 05:00:00 11,1 4,3 10,1 10,3 10,5 14 8 22 12 SSW 1014,2 20 0 0,0
16.04.2019 04:00:00 10,7 3,7 8,7 10,4 10,5 11 6 18 10 S 1013,7 20 0 0,0
16.04.2019 03:00:00 10,1 2,7 8,9 10,5 10,5 12 7 27 15 SSE 1013,3 20 0 0,0
16.04.2019 02:00:00 10,2 2,5 6,2 10,7 10,5 14 8 20 11 SSE 1013,2 20 0 0,0
16.04.2019 01:00:00 10,6 1,7 7,3 10,9 10,5 10 5 22 12 SE 1013,1 20 0 0,0
16.04.2019 00:00:00 10,6 1,4 7,1 11,1 10,5 5 3 19 10 E 1013,1 20 0 0,0
15.04.2019 23:00:00 11,8 1,4 8,3 11,3 10,5 10 6 18 10 E 1013,0 20 0 0,0
15.04.2019 22:00:00 12,0 1,0 9,0 11,5 10,5 9 5 16 9 ESE 1013,3 20 0 0,0
15.04.2019 21:00:00 13,0 0,7 10,8 11,7 10,5 11 6 24 13 ESE 1013,3 20 0 0,0
15.04.2019 20:00:00 15,5 0,1 14,7 11,7 10,5 17 9 35 19 ESE 1012,8 20 60 0,0
15.04.2019 19:00:00 16,8 -1,4 17,3 11,6 10,5 22 12 37 20 ESE 1012,6 20 60 0,0
15.04.2019 18:00:00 17,4 0,1 18,7 11,4 10,5 19 10 35 19 ESE 1013,3 19 55 0,0
15.04.2019 17:00:00 17,4 0,9 20,5 10,9 10,5 19 10 34 19 ESE 1013,9 20 60 0,0
15.04.2019 16:00:00 17,0 1,4 20,2 10,4 10,5 22 12 37 20 E 1014,8 20 60 0,0
15.04.2019 15:00:00 15,5 1,9 17,8 9,8 10,5 18 10 40 21 ENE 1015,8 18 60 0,0
15.04.2019 14:00:00 14,4 1,6 16,3 9,3 10,5 20 11 38 21 ENE 1016,9 14 60 0,0
15.04.2019 13:00:00 12,9 1,5 16,2 8,7 10,5 20 11 36 19 ENE 1018,2 14 60 0,0
15.04.2019 12:00:00 11,8 2,3 15,3 8,0 10,5 11 6 21 11 E 1019,6 9 60 0,0
15.04.2019 11:00:00 8,0 2,0 11,8 7,6 10,5 7 4 12 7 N 1021,0 4,7 60 0,0
15.04.2019 10:00:00 4,9 1,0 7,5 7,5 10,5 5 3 9 5 N 1021,9 3,9 60 0,0
15.04.2019 09:00:00 1,8 -0,1 2,2 7,5 10,5 4 2 7 4 NW 1022,6 6 53 0,0
15.04.2019 08:00:00 -0,9 -2,3 -2,7 7,7 10,6 2 1 7 4 WSW 1022,6 6 34 0,0
15.04.2019 07:00:00 -2,1 -3,7 -3,4 8,0 10,5 4 2 9 5 WSW 1022,6 6 0 0,0
15.04.2019 06:00:00 -2,0 -3,7 -3,4 8,2 10,6 2 1 8 5 NNW 1022,7 7 0 0,0
15.04.2019 05:00:00 -1,8 -3,7 -2,5 8,5 10,6 7 4 9 5 SW 1023,3 7 0 0,0
15.04.2019 04:00:00 -1,5 -3,5 -2,8 8,8 10,6 4 2 8 5 WSW 1023,4 8 0 0,0
15.04.2019 03:00:00 -1,1 -3,6 -2,2 9,1 10,6 0 0 7 4 N 1023,5 9 0 0,0
15.04.2019 02:00:00 -0,5 -3,7 -2,0 9,4 10,6 2 1 9 5 WNW 1024,1 10 0 0,0
15.04.2019 01:00:00 0,7 -3,2 -1,5 9,7 10,6 2 1 5 3 WNW 1024,2 11 0 0,0
15.04.2019 00:00:00 2,5 -3,2 -1,0 10,0 10,6 0 0 6 3 N 1024,2 13 0 0,0
14.04.2019 23:00:00 3,8 -3,5 1,5 10,4 10,6 5 3 11 6 NNW 1023,9 16 0 0,0
14.04.2019 22:00:00 5,2 -3,6 3,7 10,6 10,6 8 4 16 9 NE 1023,1 19 0 0,0

tt = Température de l'air
td = dewpoint
tt 5cm = Température de l'air 5cm
tt -20cm = Température de l'air -20cm
tt -100cm = Température de l'air -100cm
ff = Vitesse du vent
fx = gusts
dd = Direction du vent
ppp = reduced air pressure
vv = visibility
sd = Ensoleillement
rr = Quantités de précipitations

stations d'obs. à proximité